ZHONGXING-10

Last updated on Mon Sep 21 2026 00:02:58 GMT+0000 (Coordinated Universal Time)

1 37677U 11026A 26262.98080528 .00000053 00000+0 00000+0 0 9994 2 37677 1.2155 49.3626 0009815 78.6074 297.5162 0.98875277 55949
UTC large
Height (km)
Speed (km/s)
/
Latitude / Longitude
Inclination (degrees)
Orbital Period (minutes)
Azimuth
Elevation
Range (km)
Doppler Factor

Next 0 passes for location: London (51.5072 / 0.1276)

No passes found over London.
ZHONGXING-10